Weather History for NW Arkansas Airport, AR

Change the Weather History Date:

Wednesday, January 9, 2013

  Actual Average Record
Temperature  
Mean Temperature 50 °F -  
Max Temperature 53 °F - - ()
Min Temperature 46 °F - - ()
Degree Days  
Heating Degree Days 16    
Moisture  
Dew Point 45 °F    
Average Humidity 90    
Maximum Humidity 100    
Minimum Humidity 66    
Precipitation  
Precipitation 0.13 in - - ()
Sea Level Pressure  
Sea Level Pressure 30.25 in    
Wind  
Wind Speed 5 mph (ENE)    
Max Wind Speed 18 mph    
Max Gust Speed 28 mph    
Visibility 5 miles    
Events Rain    
T = Trace of Precipitation, MM = Missing Value Source: NWS Daily Summary

Daily Weather History Graph

Daily Weather History Graph

Search for Another Location

Airport:

Trip Planner

Search our weather history database for the weather conditions in past years. The results will help you decide how hot, cold, wet, or windy it might be!

Date:

Astronomy

Jan. 09, 2013 Rise Set
Actual Time 7:28 AM CST 5:20 PM CST
Civil Twilight 7:00 AM CST 5:48 PM CST
Nautical Twilight 6:28 AM CST 6:20 PM CST
Astronomical Twilight 5:57 AM CST 6:51 PM CST
Moon 5:08 AM CST (1/9) 3:22 PM CST (1/9)
Length of Visible Light 10h 48m
Length of Day
9h 51m
Waning Crescent, 6% of the Moon is Illuminated
Jan 9
Waning Crescent
Jan 11
New
Jan 18
First Quarter
Jan 26
Full
Feb 3
Last Quarter

Hourly Weather History & Observations

Time (CST) Temp. Windchill Dew Point Humidity Pressure Visibility Wind Dir Wind Speed Gust Speed Precip Events Conditions
12:10 AM 46.4 °F - 46.4 °F 100% 30.21 in 1.8 mi Calm Calm - 0.03 in Rain Heavy Rain
12:25 AM 46.4 °F - 46.4 °F 100% 30.21 in 2.0 mi Calm Calm - 0.07 in Rain Light Rain
12:42 AM 46.4 °F - 46.4 °F 100% 30.21 in 1.0 mi Calm Calm - 0.07 in Rain Light Rain
12:53 AM 46.0 °F 44.8 °F 46.0 °F 100% 30.21 in 1.8 mi ESE 3.5 mph - 0.08 in Rain Light Rain
1:01 AM 46.4 °F - 46.4 °F 100% 30.21 in 2.0 mi Calm Calm - 0.01 in Rain Light Rain
1:15 AM 46.4 °F - 46.4 °F 100% 30.21 in 2.5 mi Calm Calm - 0.01 in Rain Light Rain
1:35 AM 46.4 °F - 46.4 °F 100% 30.21 in 1.8 mi Calm Calm - 0.02 in Rain Light Rain
1:43 AM 46.4 °F 45.2 °F 46.4 °F 100% 30.21 in 2.0 mi SE 3.5 mph - 0.02 in Rain Light Rain
1:53 AM 46.0 °F - 46.0 °F 100% 30.21 in 4.0 mi Calm Calm - 0.02 in   Overcast
2:16 AM 46.4 °F 45.2 °F 46.4 °F 100% 30.22 in 2.5 mi East 3.5 mph - N/A   Overcast
2:28 AM 46.4 °F - 46.4 °F 100% 30.22 in 1.8 mi Calm Calm - N/A   Overcast
2:53 AM 46.0 °F - 46.0 °F 100% 30.22 in 0.8 mi Calm Calm - N/A   Overcast
3:32 AM 46.4 °F 44.3 °F 46.4 °F 100% 30.23 in 1.0 mi North 4.6 mph - 0.02 in Rain Light Rain
3:53 AM 46.9 °F - 46.9 °F 100% 30.22 in 1.2 mi NNE 5.8 mph - 0.03 in Rain Light Rain
4:01 AM 46.4 °F 43.5 °F 46.4 °F 100% 30.22 in 1.2 mi NE 5.8 mph - 0.00 in   Overcast
4:48 AM 46.4 °F 44.3 °F 46.4 °F 100% 30.24 in 2.0 mi NNE 4.6 mph - 0.00 in   Overcast
4:53 AM 46.9 °F - 46.9 °F 100% 30.24 in 2.5 mi NNE 4.6 mph - 0.00 in   Overcast
5:21 AM 46.4 °F 42.9 °F 46.4 °F 100% 30.24 in 1.0 mi NNE 6.9 mph - N/A   Mist
5:53 AM 46.9 °F - 46.9 °F 100% 30.25 in 1.5 mi NE 8.1 mph - N/A   Overcast
6:03 AM 46.4 °F 42.4 °F 46.4 °F 100% 30.25 in 2.5 mi NE 8.1 mph - N/A   Overcast
6:15 AM 46.4 °F 41.1 °F 46.4 °F 100% 30.26 in 1.2 mi NE 11.5 mph - N/A   Overcast
6:36 AM 46.4 °F 41.9 °F 46.4 °F 100% 30.26 in 3.0 mi NE 9.2 mph - N/A   Overcast
6:53 AM 46.9 °F - 46.9 °F 100% 30.27 in 6.0 mi ENE 9.2 mph - N/A   Overcast
7:32 AM 46.4 °F 42.4 °F 46.4 °F 100% 30.29 in 10.0 mi ENE 8.1 mph - N/A   Scattered Clouds
7:53 AM 46.0 °F 42.5 °F 46.0 °F 100% 30.31 in 9.0 mi ENE 6.9 mph - N/A   Partly Cloudy
8:53 AM 46.0 °F 41.9 °F 46.0 °F 100% 30.34 in 8.0 mi East 8.1 mph - N/A   Partly Cloudy
9:53 AM 46.9 °F - 46.0 °F 97% 30.33 in 9.0 mi East 11.5 mph - N/A   Clear
10:53 AM 48.9 °F - 45.0 °F 86% 30.32 in 10.0 mi ENE 15.0 mph 18.4 mph N/A   Clear
11:53 AM 50.0 °F - 45.0 °F 83% 30.31 in 10.0 mi NE 13.8 mph - N/A   Clear
12:53 PM 51.1 °F - 44.1 °F 77% 30.30 in 10.0 mi ENE 12.7 mph - N/A   Clear
1:53 PM 52.0 °F - 45.0 °F 77% 30.28 in 10.0 mi ENE 10.4 mph - N/A   Clear
2:53 PM 52.0 °F - 44.1 °F 74% 30.28 in 10.0 mi ENE 12.7 mph - N/A   Clear
3:53 PM 53.1 °F - 42.1 °F 66% 30.27 in 10.0 mi ENE 13.8 mph - N/A   Clear
4:53 PM 51.1 °F - 41.0 °F 68% 30.29 in 10.0 mi East 10.4 mph - N/A   Clear
5:53 PM 50.0 °F - 41.0 °F 71% 30.28 in 10.0 mi ENE 9.2 mph - N/A   Clear
6:53 PM 50.0 °F - 41.0 °F 71% 30.28 in 10.0 mi ENE 11.5 mph - N/A   Overcast
7:53 PM 50.0 °F - 39.0 °F 66% 30.27 in 10.0 mi ENE 13.8 mph - N/A   Overcast
8:53 PM 50.0 °F - 39.0 °F 66% 30.27 in 10.0 mi East 13.8 mph - 0.00 in Rain Light Rain
9:53 PM 50.0 °F - 39.9 °F 68% 30.23 in 10.0 mi East 18.4 mph 27.6 mph 0.00 in   Overcast
10:53 PM 50.0 °F - 39.0 °F 66% 30.21 in 10.0 mi East 17.3 mph 25.3 mph 0.00 in   Overcast
11:53 PM 48.9 °F - 39.9 °F 71% 30.21 in 10.0 mi East 16.1 mph 24.2 mph N/A   Overcast